カタログに戻る

STARLINK-38054

運用中通信VLEO
NORAD 100007·PAYLOAD·🇺🇸 United States

打ち上げ Jul 14, 2026 から Vandenberg Space Force Base

Loading…

次のパス (今後24時間)

TLE

最新Source: Space-Track

元期: Sep 14, 2026, 14:06 UTC

1 A0007U 26160G   26257.58775456  .00206192  00000-0  12057-2 0  9998
2 A0007  70.0011 211.5383 0002894 278.0811  82.0060 15.77612162 11063

AllMySatでSTARLINK-38054をリアルタイム追跡

Download on the App Store